Stations météo

réclame
Mon MeteoGroup
Villanueva De Cordoba, Espagne (8346): Température de l'air & dewpoint: 17.10.2017 06:00:00 - 23.10.2017 06:00:00 (CEST)Villanueva De Cordoba, Espagne (8346): Vitesse du vent & gusts: 17.10.2017 06:00:00 - 23.10.2017 06:00:00 (CEST)Villanueva De Cordoba, Espagne (8346): Direction du vent: 17.10.2017 06:00:00 - 23.10.2017 06:00:00 (CEST)Villanueva De Cordoba, Espagne (8346): reduced air pressure: 17.10.2017 06:00:00 - 23.10.2017 06:00:00 (CEST)Villanueva De Cordoba, Espagne (8346): visibility: 17.10.2017 06:00:00 - 23.10.2017 06:00:00 (CEST)Villanueva De Cordoba, Espagne (8346): Ensoleillement: 17.10.2017 06:00:00 - 23.10.2017 06:00:00 (CEST)Villanueva De Cordoba, Espagne (8346): Quantités de précipitations: 17.10.2017 06:00:00 - 23.10.2017 06:00:00 (CEST)
Date & Time tt [°C] td [°C] ff [km/h] ff [knt] fx [km/h] fx [knt] dd ppp [hPa] vv [km] sd [min] rr [mm]
23.10.2017 06:00:00 - - - - - - - - - - -
23.10.2017 05:00:00 13,5 7,7 5 3 8 5 E 1024,4 20 0 0,0
23.10.2017 04:00:00 13,4 7,6 4 2 9 5 SSE 1024,8 20 0 0,0
23.10.2017 03:00:00 13,7 7,8 5 3 11 6 ENE 1024,7 20 0 0,0
23.10.2017 02:00:00 14,8 8,1 6 3 11 6 E 1024,8 20 0 -
23.10.2017 01:00:00 14,6 8,3 7 4 13 7 ENE 1025,0 20 0 0,0
23.10.2017 00:00:00 14,7 8,1 6 4 11 6 ENE 1025,2 20 0 0,0
22.10.2017 23:00:00 14,8 8,5 6 4 11 6 NE 1024,7 20 0 0,0
22.10.2017 22:00:00 16,2 8,4 7 4 13 7 NNE 1024,1 20 0 0,0
22.10.2017 21:00:00 17,6 8,4 7 4 13 7 NNW 1023,5 20 0 0,0
22.10.2017 20:00:00 18,7 8,1 6 3 11 6 NNW 1022,7 20 16 -
22.10.2017 19:00:00 21,3 8,3 5 3 11 6 NNW 1021,6 20 58 0,0
22.10.2017 18:00:00 22,5 7,4 7 4 13 7 NW 1021,3 20 60 0,0
22.10.2017 17:00:00 22,7 7,7 4 2 15 8 N 1021,2 20 60 0,0
22.10.2017 16:00:00 22,8 8,5 7 4 16 9 SSW 1021,5 20 60 0,0
22.10.2017 15:00:00 22,0 8,8 4 2 28 15 S 1022,4 20 60 0,0
22.10.2017 14:00:00 21,0 9,3 5 3 16 9 ESE 1023,3 20 60 -
22.10.2017 13:00:00 19,6 9,8 4 2 14 8 NE 1024,4 20 28 0,0
22.10.2017 12:00:00 18,8 11,9 4 2 11 6 ENE 1024,4 20 60 0,0
22.10.2017 11:00:00 16,6 12,3 4 2 8 4 NNE 1025,2 20 60 0,0
22.10.2017 10:00:00 14,1 12,5 4 2 15 8 NNE 1025,5 20 28 0,0
22.10.2017 09:00:00 11,6 10,3 5 3 11 6 N 1025,5 20 0 0,0
22.10.2017 08:00:00 11,4 9,4 6 3 16 8 NNW 1025,6 20 0 -
22.10.2017 07:00:00 11,9 10,5 7 4 15 8 NNW 1025,3 20 0 0,2
22.10.2017 06:00:00 12,5 11,2 8 4 15 8 N 1024,8 16 0 0,0
22.10.2017 05:00:00 13,0 11,8 8 5 15 8 NNW 1024,7 20 0 0,0
22.10.2017 04:00:00 13,3 11,9 8 4 17 9 NNW 1024,9 18 0 0,0
22.10.2017 03:00:00 13,9 12,4 9 5 19 10 NNW 1025,2 19 0 0,0
22.10.2017 02:00:00 14,4 12,6 9 5 17 9 NNW 1025,1 20 0 -
22.10.2017 01:00:00 14,5 12,5 8 4 14 8 N 1025,0 20 0 0,0
22.10.2017 00:00:00 15,1 12,7 8 4 15 8 NNW 1024,6 20 0 0,0
21.10.2017 23:00:00 15,5 12,8 7 4 13 7 NNW 1024,4 20 0 0,0
21.10.2017 22:00:00 16,1 12,6 7 4 15 8 NNW 1024,1 20 0 0,0
21.10.2017 21:00:00 17,0 12,3 8 4 19 10 NNW 1023,7 20 0 0,0
21.10.2017 20:00:00 18,0 12,0 9 5 24 13 N 1022,7 20 2 -
21.10.2017 19:00:00 20,0 11,8 10 5 23 13 NNW 1021,8 20 49 0,0
21.10.2017 18:00:00 21,0 10,8 11 6 28 15 NW 1021,4 20 55 0,0
21.10.2017 17:00:00 21,4 11,1 13 7 23 12 NNW 1021,4 20 39 0,0
21.10.2017 16:00:00 20,7 11,9 13 7 25 13 NW 1022,0 20 37 0,0
21.10.2017 15:00:00 21,4 12,5 11 6 31 17 NW 1022,1 20 36 0,0
21.10.2017 14:00:00 20,5 13,0 6 4 19 11 WNW 1023,1 20 36 -
21.10.2017 13:00:00 19,0 14,0 9 5 21 12 N 1024,3 20 28 0,0
21.10.2017 12:00:00 18,6 14,9 9 5 21 12 NNW 1024,3 20 18 0,0
21.10.2017 11:00:00 18,2 15,4 4 2 13 7 NNW 1024,2 20 40 0,0
21.10.2017 10:00:00 16,3 15,2 4 2 8 4 NNE 1024,3 17 0 0,0
21.10.2017 09:00:00 15,8 14,5 3 2 9 5 N 1024,0 5 0 0,0
21.10.2017 08:00:00 15,5 14,0 1 1 3 2 SW 1023,8 2,5 0 -
21.10.2017 07:00:00 15,4 13,9 1 1 6 3 SSW 1023,3 2,0 0 0,0
21.10.2017 06:00:00 15,2 13,4 3 2 6 3 W 1023,0 7 0 0,0
21.10.2017 05:00:00 14,8 12,8 3 2 7 4 SSW 1023,0 13 0 0,0
21.10.2017 04:00:00 15,0 13,1 5 3 8 4 S 1023,3 17 0 0,0
21.10.2017 03:00:00 14,9 13,1 5 3 10 5 S 1023,5 9 0 0,0
21.10.2017 02:00:00 14,3 12,6 6 4 12 7 SSE 1023,7 12 0 -
21.10.2017 01:00:00 14,2 12,4 6 4 10 5 SSE 1023,9 10 0 0,0
21.10.2017 00:00:00 14,3 12,2 6 3 9 5 S 1024,1 12 0 0,0
20.10.2017 23:00:00 14,5 12,2 6 3 11 6 SSE 1023,8 14 0 0,0
20.10.2017 22:00:00 15,1 12,4 6 4 11 6 S 1023,4 17 0 0,0
20.10.2017 21:00:00 16,2 12,0 5 3 7 4 SSW 1022,5 20 0 0,0
20.10.2017 20:00:00 17,7 11,7 4 2 12 6 NW 1021,5 20 17 -
20.10.2017 19:00:00 19,3 11,8 8 4 18 10 NW 1020,5 20 44 0,0
20.10.2017 18:00:00 19,8 11,6 9 5 27 14 NW 1020,3 20 26 0,0
20.10.2017 17:00:00 20,7 10,2 8 5 22 12 NNW 1020,1 20 33 0,0
20.10.2017 16:00:00 20,8 10,9 10 5 26 14 WNW 1020,1 20 43 0,0
20.10.2017 15:00:00 19,7 11,2 11 6 29 15 NNW 1020,5 20 27 0,0
20.10.2017 14:00:00 17,9 12,3 10 5 23 13 NW 1021,3 20 26 -
20.10.2017 13:00:00 16,4 12,5 8 4 16 9 NW 1022,2 20 6 0,0
20.10.2017 12:00:00 15,0 12,8 9 5 16 9 W 1022,2 15 0 0,0
20.10.2017 11:00:00 14,3 12,8 9 5 14 8 W 1021,9 18 0 0,0
20.10.2017 10:00:00 13,6 12,5 5 3 12 6 NW 1021,2 4,0 0 0,0
20.10.2017 09:00:00 13,3 12,2 5 3 13 7 NW 1020,9 2,8 0 0,0
20.10.2017 08:00:00 13,0 11,9 5 3 11 6 W 1020,4 5 0 -
20.10.2017 07:00:00 12,5 11,2 5 3 8 5 W 1020,1 4,9 0 0,0
20.10.2017 06:00:00 12,4 11,3 5 3 11 6 W 1019,9 8 0 0,0
20.10.2017 05:00:00 11,9 10,8 7 4 14 8 WNW 1019,8 4,5 0 0,0
20.10.2017 04:00:00 12,1 10,9 9 5 18 10 NW 1019,5 9 0 0,0
20.10.2017 03:00:00 12,4 10,6 9 5 16 9 NW 1019,8 20 0 0,0
20.10.2017 02:00:00 12,9 10,4 5 3 19 11 NW 1019,5 20 0 -
20.10.2017 01:00:00 13,6 10,0 7 4 16 9 NW 1019,2 20 0 0,0
20.10.2017 00:00:00 13,1 8,9 7 4 16 8 W 1019,2 20 0 0,0
19.10.2017 23:00:00 12,9 8,1 5 3 13 7 W 1018,6 20 0 0,0
19.10.2017 22:00:00 13,0 7,4 7 4 13 7 WNW 1017,9 20 0 0,0
19.10.2017 21:00:00 13,4 6,7 8 4 16 9 WNW 1017,2 20 0 0,0
19.10.2017 20:00:00 14,1 6,2 8 4 24 13 WNW 1016,5 20 19 -
19.10.2017 19:00:00 15,9 5,8 13 7 31 17 WNW 1015,1 20 59 0,0
19.10.2017 18:00:00 16,4 5,3 17 9 34 18 NW 1014,1 20 60 0,0
19.10.2017 17:00:00 17,2 5,1 18 10 34 18 W 1013,9 20 60 0,0
19.10.2017 16:00:00 16,7 5,6 19 10 35 19 W 1013,7 20 50 0,0
19.10.2017 15:00:00 17,3 6,5 15 8 32 18 W 1013,5 20 50 0,0
19.10.2017 14:00:00 15,2 6,7 13 7 24 13 WNW 1014,3 20 55 -
19.10.2017 13:00:00 14,5 8,0 11 6 19 10 WNW 1014,5 20 46 0,0
19.10.2017 12:00:00 13,7 8,9 4 2 11 6 W 1014,6 20 34 0,0
19.10.2017 11:00:00 12,4 9,9 6 3 14 7 NNW 1014,8 20 20 0,0
19.10.2017 10:00:00 10,4 9,3 3 2 9 5 ENE 1014,6 20 0 0,0
19.10.2017 09:00:00 9,5 8,3 2 1 9 5 S 1014,0 17 0 0,0
19.10.2017 08:00:00 9,7 8,3 5 3 11 6 N 1013,3 20 0 -
19.10.2017 07:00:00 10,1 8,7 6 3 10 5 N 1012,9 20 0 0,0
19.10.2017 06:00:00 10,2 8,8 3 2 6 4 N 1012,8 20 0 0,2
19.10.2017 05:00:00 10,6 9,2 4 2 8 4 NE 1012,7 20 0 0,0
19.10.2017 04:00:00 10,5 9,0 5 3 8 5 ENE 1013,4 20 0 0,2
19.10.2017 03:00:00 10,6 9,0 5 3 7 4 ENE 1013,8 20 0 0,0
19.10.2017 02:00:00 10,5 8,8 3 2 13 7 NE 1013,8 20 0 -
19.10.2017 01:00:00 11,0 8,3 4 2 11 6 NNW 1014,4 20 0 0,0
19.10.2017 00:00:00 11,0 7,8 4 2 22 12 NW 1015,0 20 0 0,0
18.10.2017 23:00:00 11,5 7,8 10 5 20 11 W 1014,9 20 0 0,0
18.10.2017 22:00:00 11,9 8,5 10 5 20 11 WSW 1014,3 20 0 0,0
18.10.2017 21:00:00 12,4 10,2 2 1 22 12 W 1013,8 20 0 0,6
18.10.2017 20:00:00 13,3 10,6 9 5 24 13 SW 1013,0 20 0 -
18.10.2017 19:00:00 13,9 9,3 13 7 27 15 WSW 1012,6 20 0 0,0
18.10.2017 18:00:00 14,2 10,6 13 7 27 15 SW 1012,3 20 8 0,0
18.10.2017 17:00:00 13,2 10,9 9 5 29 16 WNW 1012,9 20 19 1,8
18.10.2017 16:00:00 14,4 9,4 12 6 28 15 WSW 1012,8 20 4 0,0
18.10.2017 15:00:00 14,3 10,5 14 7 28 15 WSW 1013,3 20 13 0,2
18.10.2017 14:00:00 12,7 10,0 18 10 35 19 W 1014,7 20 0 -
18.10.2017 13:00:00 13,2 11,4 18 10 28 15 WSW 1014,8 18 0 0,0
18.10.2017 12:00:00 13,2 11,8 12 6 34 18 SW 1014,6 20 0 0,4
18.10.2017 11:00:00 13,1 12,0 16 9 33 18 SSW 1014,5 20 0 0,2
18.10.2017 10:00:00 13,0 11,9 11 6 26 14 SSW 1014,0 19 0 1,2
18.10.2017 09:00:00 13,0 11,9 10 6 24 13 SW 1013,9 20 0 5,6
18.10.2017 08:00:00 13,4 12,4 10 5 32 17 SSW 1014,0 5 0 -
18.10.2017 07:00:00 13,4 12,3 13 7 34 18 S 1014,0 3,4 0 4,0
18.10.2017 06:00:00 13,4 12,3 16 8 45 25 S 1014,5 4,0 0 6,6
18.10.2017 05:00:00 13,7 12,6 16 8 35 19 S 1014,9 6 0 1,2
18.10.2017 04:00:00 13,9 12,6 11 6 25 13 SSE 1015,9 12 0 1,6
18.10.2017 03:00:00 14,1 13,0 8 4 24 13 SSE 1016,6 11 0 1,6
18.10.2017 02:00:00 14,2 13,0 12 7 23 12 SSW 1017,7 6 0 -
18.10.2017 01:00:00 13,9 12,4 9 5 19 11 S 1018,0 13 0 0,0
18.10.2017 00:00:00 14,0 12,5 9 5 18 10 S 1018,4 20 0 0,4
17.10.2017 23:00:00 13,9 12,1 9 5 45 24 S 1019,4 20 0 0,8
17.10.2017 22:00:00 14,1 12,1 12 6 35 19 SSW 1019,4 20 0 3,6
17.10.2017 21:00:00 14,5 12,3 4 2 12 6 SSE 1019,0 20 0 0,0
17.10.2017 20:00:00 14,2 11,7 4 2 16 9 SSE 1019,1 20 0 -
17.10.2017 19:00:00 14,9 11,9 6 4 17 9 S 1019,3 20 2 0,4
17.10.2017 18:00:00 15,4 11,3 12 7 32 17 SSW 1019,6 14 0 1,6
17.10.2017 17:00:00 17,1 14,0 3 2 26 14 SE 1018,9 19 0 0,8
17.10.2017 16:00:00 16,7 13,1 3 2 28 15 SW 1020,0 10 0 1,4
17.10.2017 15:00:00 20,2 8,8 14 7 30 16 SSW 1019,4 20 0 0,0
17.10.2017 14:00:00 20,9 8,5 12 7 29 16 S 1019,6 20 0 -
17.10.2017 13:00:00 21,1 8,0 13 7 22 12 SSE 1019,7 20 10 0,0
17.10.2017 12:00:00 19,2 8,8 11 6 29 16 SSW 1021,1 20 0 0,0
17.10.2017 11:00:00 18,4 7,1 11 6 27 15 S 1021,5 20 0 0,0
17.10.2017 10:00:00 17,5 6,1 11 6 26 14 SSE 1021,2 20 0 0,0
17.10.2017 09:00:00 16,8 5,8 9 5 21 11 SSE 1021,1 20 0 0,0
17.10.2017 08:00:00 17,1 5,3 11 6 26 14 SSE 1020,6 20 0 -
17.10.2017 07:00:00 16,8 5,5 12 7 28 15 SSE 1020,7 20 0 0,0
17.10.2017 06:00:00 16,3 5,6 11 6 23 12 S 1021,0 20 0 0,0

tt = Température de l'air
td = dewpoint
ff = Vitesse du vent
fx = gusts
dd = Direction du vent
ppp = reduced air pressure
vv = visibility
sd = Ensoleillement
rr = Quantités de précipitations

stations d'obs. à proximité